Location: Wanzleben
(52.0609°N, 11.4408°E)
Time: 18:41:46
(UTC+00:00)

COSMOS 2406 - Pass Details

Date: 22 January 2021
Orbit: 841 x 865 km, 71.0° (Epoch: 05 March)

Event Time Altitude Azimuth Distance (km) Brightness Sun altitude
Rises 20:29:51 0° 316° (NW) 3,458 7.1 -42.8°
Reaches altitude 10° 20:33:50 10° 289° (WNW) 2,513 6.3 -43.4°
Maximum altitude 20:36:10 13° 265° (W) 2,322 5.9 -43.7°
Enters shadow 20:36:22 13° 263° (W) 2,323 5.9 -43.7°
